Weather History for KPLN - October, 2011

Change the Weather History Date:

Saturday, October 29, 2011

  Actual Average Record
Temperature  
Mean Temperature 36 °F -  
Max Temperature 50 °F 49 °F 74 °F (1989)
Min Temperature 24 °F 30 °F 14 °F (2000)
Degree Days  
Heating Degree Days 29    
Moisture  
Dew Point 31 °F    
Average Humidity 88    
Maximum Humidity 100    
Minimum Humidity 56    
Precipitation  
Precipitation 0.00 in - - ()
Sea Level Pressure  
Sea Level Pressure 30.06 in    
Wind  
Wind Speed 1 mph (NNW)    
Max Wind Speed 8 mph    
Max Gust Speed -    
Visibility 8 miles    
Events Fog    
Averages and records for this station are not official NWS values.
T = Trace of Precipitation, MM = Missing Value Source: NWS Daily Summary

Daily Weather History Graph

Daily Weather History Graph

Search for Another Location

Airport or City:

Trip Planner

Search our weather history database for the weather conditions in past years. The results will help you decide how hot, cold, wet, or windy it might be!

Date:

Astronomy

Oct. 29, 2011 Rise Set
Actual Time 8:14 AM EDT 6:30 PM EDT
Civil Twilight 7:43 AM EDT 7:01 PM EDT
Nautical Twilight 7:08 AM EDT 7:36 PM EDT
Astronomical Twilight 6:34 AM EDT 8:10 PM EDT
Moon 11:45 AM EDT (10/29) 8:43 PM EDT (10/29)
Length of Visible Light 11h 18m
Length of Day
10h 16m
Waxing Crescent, 11% of the Moon is Illuminated
Oct 29
Waxing Crescent
Nov 2
First Quarter
Nov 10
Full
Nov 18
Last Quarter
Nov 25
New

Hourly Weather History & Observations

Time (EDT) Temp. Windchill Dew Point Humidity Pressure Visibility Wind Dir Wind Speed Gust Speed Precip Events Conditions
12:54 AM 28.0 °F - 27.0 °F 96% 30.06 in 10.0 mi Calm Calm - N/A   Clear
1:54 AM 28.0 °F - 26.1 °F 92% 30.05 in 10.0 mi Calm Calm - N/A   Clear
2:54 AM 26.1 °F - 25.0 °F 96% 30.04 in 10.0 mi Calm Calm - N/A   Clear
3:54 AM 25.0 °F - 24.1 °F 96% 30.04 in 10.0 mi Calm Calm - N/A   Partly Cloudy
4:54 AM 24.1 °F - 21.9 °F 91% 30.03 in 10.0 mi Calm Calm - N/A   Clear
5:54 AM 24.8 °F - 23.0 °F 93% 30.00 in 10.0 mi Calm Calm - N/A   Mostly Cloudy
6:54 AM 26.1 °F - 24.1 °F 92% 30.04 in 10.0 mi Calm Calm - N/A   Mostly Cloudy
7:36 AM 24.8 °F - 24.8 °F 100% 30.01 in 10.0 mi Calm Calm - N/A   Mostly Cloudy
7:49 AM 24.8 °F - 24.8 °F 100% 30.01 in 10.0 mi Calm Calm - N/A   Scattered Clouds
7:54 AM 26.1 °F - 24.1 °F 92% 30.04 in 10.0 mi Calm Calm - N/A   Scattered Clouds
9:45 AM 28.4 °F - 28.4 °F 100% 30.02 in 10.0 mi Calm Calm - N/A   Scattered Clouds
9:54 AM 30.0 °F - 30.0 °F 100% 30.06 in 10.0 mi Calm Calm - N/A   Mostly Cloudy
10:54 AM 34.0 °F - 33.1 °F 96% 30.06 in 7.0 mi Calm Calm - N/A   Mostly Cloudy
11:54 AM 39.0 °F - 36.0 °F 89% 30.06 in 10.0 mi Calm Calm - N/A   Overcast
12:54 PM 46.4 °F - 37.4 °F 71% 30.03 in 10.0 mi Calm Calm - N/A   Partly Cloudy
1:54 PM 48.0 °F - 37.9 °F 68% 30.05 in 10.0 mi SE 5.8 mph - N/A   Mostly Cloudy
2:24 PM 48.2 °F - 35.6 °F 62% 30.02 in 10.0 mi SE 5.8 mph - N/A   Mostly Cloudy
2:43 PM 48.2 °F - 35.6 °F 62% 30.01 in 10.0 mi ESE 4.6 mph - N/A   Scattered Clouds
2:54 PM 48.9 °F - 36.0 °F 61% 30.04 in 10.0 mi SSE 5.8 mph - N/A   Partly Cloudy
3:54 PM 48.0 °F - 33.1 °F 56% 30.04 in 10.0 mi East 6.9 mph - N/A   Mostly Cloudy
4:54 PM 45.0 °F 41.2 °F 37.9 °F 76% 30.05 in 10.0 mi West 6.9 mph - N/A   Overcast
5:54 PM 42.1 °F 37.1 °F 36.0 °F 79% 30.07 in 10.0 mi WNW 8.1 mph - N/A   Overcast
6:28 PM 42.8 °F 39.3 °F 37.4 °F 81% 30.05 in 10.0 mi North 5.8 mph - N/A   Overcast
6:42 PM 42.8 °F 40.1 °F 35.6 °F 76% 30.06 in 10.0 mi NNW 4.6 mph - N/A   Overcast
6:54 PM 42.1 °F 40.2 °F 35.1 °F 76% 30.08 in 10.0 mi NW 3.5 mph - N/A   Overcast
7:54 PM 39.9 °F - 36.0 °F 86% 30.11 in 10.0 mi Calm Calm - 0.00 in   Overcast
8:54 PM 37.0 °F 33.3 °F 35.1 °F 93% 30.12 in 10.0 mi WNW 4.6 mph - N/A   Overcast
9:54 PM 34.0 °F - 34.0 °F 100% 30.11 in 10.0 mi Calm Calm - N/A   Partly Cloudy
10:08 PM 33.8 °F - 33.8 °F 100% 30.08 in 1.8 mi Calm Calm - N/A   Clear
10:13 PM 32.0 °F - 32.0 °F 100% 30.09 in 0.5 mi Calm Calm - N/A Fog Fog
10:23 PM 32.0 °F - 32.0 °F 100% 30.09 in 1.0 mi Calm Calm - N/A   Clear
10:43 PM 30.2 °F - 30.2 °F 100% 30.09 in 3.0 mi Calm Calm - N/A   Clear
10:51 PM 28.4 °F - 28.4 °F 100% 30.09 in 1.2 mi Calm Calm - N/A   Partly Cloudy
10:54 PM 28.0 °F - 28.0 °F 100% 30.12 in 0.2 mi Calm Calm - N/A Fog Light Freezing Fog
11:17 PM 30.2 °F - 28.4 °F 93% 30.09 in 0.5 mi Calm Calm - N/A Fog Light Freezing Fog
11:54 PM 28.0 °F - 28.0 °F 100% 30.12 in 0.5 mi Calm Calm - N/A Fog Light Freezing Fog